Location: Tel Aviv
(32.0670°N, 34.7670°E)
Time: 05:18:30
(UTC+03:00)

Vanguard 2 - Pass Details

Date: 26 January 2022
Orbit: 552 x 2935 km, 32.9° (Epoch: 25 May)

Event Time Altitude Azimuth Distance (km) Brightness Sun altitude
Rises 23:35:37 0° 282° (WNW) 5,141 - -75.9°
Reaches altitude 10° 23:38:31 10° 281° (WNW) 4,414 - -76.1°
Maximum altitude 23:51:47 79° 198° (SSW) 2,673 - -76.5°
Drops below altitude 10° 00:09:46 10° 115° (ESE) 5,755 - -76.0°
Exits shadow 00:12:29 - 115° (ESE) 6,346 12.2 -75.8°
Sets 00:14:11 0° 115° (ESE) 6,714 12.3 -75.7°
